EZY226C EHAM-EGLL

Flight info

Callsign EZY226C
Flight time 0h 47m
Altitude 24000
Route IDRID L980 LOGAN
Aircraft A20N/M-SDE2E3FGHIRWXY/LB1

Departure

Time 2026-05-03 22:25
Airport Amsterdam Airport Schiphol (EHAM)

Arrival

Time 2026-05-03 23:13
Airport London Heathrow Airport (EGLL)
Time Latitude Longitude Altitude Speed Heading
2026-05-03 21:58 52.30967 4.75300 -3 ft 0 kts 148°
2026-05-03 22:10 52.30996 4.75208 -3 ft 6 kts 61°
2026-05-03 22:10 52.30995 4.75205 -3 ft 0 kts 61°
2026-05-03 22:14 52.30996 4.75208 -3 ft 1 kts 61°
2026-05-03 22:14 52.31008 4.75241 -3 ft 5 kts 57°
2026-05-03 22:14 52.31044 4.75288 -2 ft 8 kts 30°
2026-05-03 22:15 52.31091 4.75346 0 ft 9 kts 53°
2026-05-03 22:15 52.31138 4.75435 1 ft 11 kts 27°
2026-05-03 22:15 52.31214 4.75460 5 ft 11 kts 356°
2026-05-03 22:15 52.31290 4.75448 6 ft 11 kts 355°
2026-05-03 22:16 52.31345 4.75441 7 ft 13 kts 355°
2026-05-03 22:16 52.31442 4.75436 9 ft 15 kts 356°
2026-05-03 22:16 52.31516 4.75507 12 ft 14 kts 78°
2026-05-03 22:16 52.31524 4.75687 11 ft 18 kts 86°
2026-05-03 22:17 52.31531 4.75886 16 ft 13 kts 87°
2026-05-03 22:17 52.31535 4.76016 18 ft 12 kts 87°
2026-05-03 22:17 52.31540 4.76182 16 ft 17 kts 86°
2026-05-03 22:17 52.31546 4.76384 17 ft 18 kts 87°
2026-05-03 22:18 52.31554 4.76606 14 ft 22 kts 87°
2026-05-03 22:18 52.31564 4.76882 11 ft 23 kts 87°
2026-05-03 22:18 52.31571 4.77112 9 ft 17 kts 86°
2026-05-03 22:18 52.31577 4.77266 9 ft 15 kts 86°
2026-05-03 22:19 52.31570 4.77440 12 ft 16 kts 108°
2026-05-03 22:19 52.31499 4.77585 12 ft 13 kts 137°
2026-05-03 22:19 52.31420 4.77653 16 ft 13 kts 169°
2026-05-03 22:19 52.31320 4.77653 15 ft 16 kts 186°
2026-05-03 22:20 52.31191 4.77642 12 ft 20 kts 183°
2026-05-03 22:20 52.31049 4.77627 13 ft 21 kts 183°
2026-05-03 22:20 52.30897 4.77610 12 ft 21 kts 183°
2026-05-03 22:20 52.30792 4.77602 13 ft 8 kts 182°
2026-05-03 22:21 52.30722 4.77595 13 ft 12 kts 185°
2026-05-03 22:21 52.30631 4.77579 13 ft 14 kts 197°
2026-05-03 22:21 52.30553 4.77554 14 ft 5 kts 161°
2026-05-03 22:21 52.30550 4.77558 14 ft 0 kts 149°
2026-05-03 22:22 52.30544 4.77563 15 ft 2 kts 149°
2026-05-03 22:22 52.30521 4.77586 16 ft 5 kts 150°
2026-05-03 22:22 52.30496 4.77608 17 ft 0 kts 152°
2026-05-03 22:23 52.30490 4.77613 17 ft 2 kts 152°
2026-05-03 22:23 52.30476 4.77624 18 ft 3 kts 155°
2026-05-03 22:23 52.30452 4.77637 18 ft 5 kts 170°
2026-05-03 22:23 52.30406 4.77613 19 ft 10 kts 221°
2026-05-03 22:24 52.30385 4.77565 16 ft 0 kts 238°
2026-05-03 22:24 52.30342 4.77452 15 ft 50 kts 238°
2026-05-03 22:25 52.29991 4.76544 16 ft 134 kts 237°
2026-05-03 22:25 52.29422 4.75061 486 ft 160 kts 238°
2026-05-03 22:25 52.28830 4.73487 1398 ft 166 kts 239°
2026-05-03 22:25 52.28190 4.71749 2181 ft 190 kts 239°
2026-05-03 22:26 52.27357 4.69931 3052 ft 211 kts 225°
2026-05-03 22:26 52.26210 4.68282 4015 ft 228 kts 222°
2026-05-03 22:26 52.25050 4.66406 5060 ft 241 kts 231°
2026-05-03 22:26 52.24084 4.64051 5855 ft 268 kts 243°
2026-05-03 22:27 52.23387 4.60954 5989 ft 314 kts 252°
2026-05-03 22:27 52.22700 4.57405 5990 ft 338 kts 252°
2026-05-03 22:27 52.22015 4.53922 5997 ft 307 kts 251°
2026-05-03 22:27 52.21376 4.50764 5998 ft 279 kts 251°
2026-05-03 22:28 52.20775 4.47855 6177 ft 265 kts 250°
2026-05-03 22:28 52.20182 4.45021 6565 ft 265 kts 250°
2026-05-03 22:28 52.19581 4.42169 7426 ft 266 kts 250°
2026-05-03 22:28 52.18978 4.39313 8460 ft 267 kts 250°
2026-05-03 22:29 52.18370 4.36435 9597 ft 270 kts 250°
2026-05-03 22:29 52.17751 4.33510 10543 ft 279 kts 250°
2026-05-03 22:29 52.17088 4.30394 11013 ft 303 kts 250°
2026-05-03 22:29 52.16372 4.27025 11507 ft 323 kts 250°
2026-05-03 22:30 52.15629 4.23532 12417 ft 328 kts 250°
2026-05-03 22:30 52.14879 4.20004 13396 ft 332 kts 250°
2026-05-03 22:30 52.14118 4.16430 14275 ft 336 kts 250°
2026-05-03 22:30 52.13346 4.12814 15152 ft 339 kts 250°
2026-05-03 22:31 52.12565 4.09165 16000 ft 343 kts 249°
2026-05-03 22:31 52.11775 4.05478 16852 ft 347 kts 249°
2026-05-03 22:31 52.10973 4.01745 17687 ft 351 kts 249°
2026-05-03 22:31 52.10162 3.97981 18482 ft 354 kts 249°
2026-05-03 22:32 52.09354 3.94233 19229 ft 357 kts 249°
2026-05-03 22:32 52.08527 3.90408 19924 ft 362 kts 249°
2026-05-03 22:32 52.07687 3.86527 20614 ft 365 kts 249°
2026-05-03 22:32 52.06840 3.82622 21356 ft 368 kts 249°
2026-05-03 22:33 52.05986 3.78693 22083 ft 371 kts 249°
2026-05-03 22:33 52.05122 3.74723 22790 ft 374 kts 249°
2026-05-03 22:33 52.04249 3.70724 23464 ft 378 kts 249°
2026-05-03 22:33 52.03367 3.66690 23592 ft 379 kts 249°
2026-05-03 22:34 52.02484 3.62661 23691 ft 379 kts 249°
2026-05-03 22:34 52.01599 3.58631 23786 ft 379 kts 249°
2026-05-03 22:34 52.00711 3.54591 23885 ft 379 kts 248°
2026-05-03 22:34 51.99688 3.50658 23933 ft 379 kts 242°
2026-05-03 22:35 51.98390 3.46948 23939 ft 376 kts 236°
2026-05-03 22:35 51.96872 3.43504 23939 ft 376 kts 233°
2026-05-03 22:35 51.95316 3.40091 23945 ft 379 kts 233°
2026-05-03 22:35 51.93754 3.36648 23934 ft 380 kts 233°
2026-05-03 22:36 51.92192 3.33199 23932 ft 379 kts 233°
2026-05-03 22:36 51.90633 3.29761 23936 ft 379 kts 233°
2026-05-03 22:36 51.89072 3.26321 23934 ft 379 kts 233°
2026-05-03 22:36 51.87510 3.22887 23932 ft 379 kts 233°
2026-05-03 22:37 51.86084 3.19296 23937 ft 380 kts 241°
2026-05-03 22:37 51.85058 3.15285 23936 ft 396 kts 251°
2026-05-03 22:37 51.84481 3.10889 23927 ft 412 kts 261°
2026-05-03 22:37 51.84195 3.06273 23929 ft 412 kts 262°
2026-05-03 22:38 51.83908 3.01667 23927 ft 412 kts 262°
2026-05-03 22:38 51.83614 2.97058 23932 ft 412 kts 261°
2026-05-03 22:38 51.83315 2.92452 23931 ft 412 kts 261°
2026-05-03 22:38 51.83008 2.87822 23927 ft 416 kts 261°
2026-05-03 22:39 51.82699 2.83172 23925 ft 416 kts 261°
2026-05-03 22:39 51.82388 2.78530 23925 ft 415 kts 261°
2026-05-03 22:39 51.82076 2.73889 23924 ft 415 kts 261°
2026-05-03 22:39 51.81761 2.69242 23924 ft 415 kts 261°
2026-05-03 22:40 51.81445 2.64609 23925 ft 415 kts 261°
2026-05-03 22:40 51.81126 2.59966 23923 ft 415 kts 261°
2026-05-03 22:40 51.80806 2.55326 23925 ft 415 kts 261°
2026-05-03 22:40 51.80484 2.50689 23923 ft 415 kts 261°
2026-05-03 22:41 51.80160 2.46053 23923 ft 415 kts 261°
2026-05-03 22:41 51.79834 2.41414 23939 ft 417 kts 261°
2026-05-03 22:41 51.79507 2.36797 23922 ft 420 kts 261°
2026-05-03 22:41 51.79174 2.32116 23919 ft 419 kts 261°
2026-05-03 22:42 51.78841 2.27444 23916 ft 419 kts 261°
2026-05-03 22:42 51.78507 2.22786 23918 ft 416 kts 261°
2026-05-03 22:42 51.78195 2.18132 23922 ft 417 kts 262°
2026-05-03 22:42 51.77923 2.13460 23922 ft 417 kts 262°
2026-05-03 22:43 51.77661 2.08792 23920 ft 417 kts 262°
2026-05-03 22:43 51.77394 2.04122 23920 ft 417 kts 262°
2026-05-03 22:43 51.77121 1.99461 23920 ft 417 kts 262°
2026-05-03 22:43 51.76843 1.94802 23920 ft 417 kts 262°
2026-05-03 22:44 51.76560 1.90130 23923 ft 421 kts 262°
2026-05-03 22:44 51.76273 1.85435 23903 ft 419 kts 262°
2026-05-03 22:44 51.75987 1.80773 23601 ft 416 kts 262°
2026-05-03 22:44 51.75701 1.76132 22947 ft 413 kts 262°
2026-05-03 22:45 51.75415 1.71542 22216 ft 409 kts 262°
2026-05-03 22:45 51.75130 1.66992 21466 ft 405 kts 262°
2026-05-03 22:45 51.74846 1.62484 20728 ft 401 kts 262°
2026-05-03 22:45 51.74566 1.58085 20019 ft 397 kts 262°
2026-05-03 22:46 51.74283 1.53644 19614 ft 386 kts 262°
2026-05-03 22:46 51.74018 1.49484 19426 ft 367 kts 262°
2026-05-03 22:46 51.73765 1.45510 19215 ft 345 kts 262°
2026-05-03 22:46 51.73525 1.41782 19039 ft 325 kts 262°
2026-05-03 22:47 51.73293 1.38222 18650 ft 316 kts 262°
2026-05-03 22:47 51.73060 1.34705 18233 ft 314 kts 262°
2026-05-03 22:47 51.72828 1.31210 17774 ft 312 kts 262°
2026-05-03 22:47 51.72597 1.27734 17325 ft 310 kts 262°
2026-05-03 22:48 51.72369 1.24292 16877 ft 308 kts 262°
2026-05-03 22:48 51.72141 1.20869 16438 ft 306 kts 262°
2026-05-03 22:48 51.71915 1.17483 16148 ft 299 kts 262°
2026-05-03 22:48 51.71690 1.14133 16049 ft 304 kts 262°
2026-05-03 22:49 51.71459 1.10730 15951 ft 305 kts 262°
2026-05-03 22:49 51.71231 1.07353 15912 ft 302 kts 262°
2026-05-03 22:49 51.71002 1.03982 15892 ft 302 kts 261°
2026-05-03 22:49 51.70772 1.00622 15681 ft 301 kts 261°
2026-05-03 22:50 51.70545 0.97317 15312 ft 300 kts 261°
2026-05-03 22:50 51.70316 0.93984 14888 ft 300 kts 261°
2026-05-03 22:50 51.70086 0.90659 14484 ft 298 kts 261°
2026-05-03 22:50 51.69856 0.87343 14078 ft 296 kts 261°
2026-05-03 22:51 51.69626 0.84054 13661 ft 294 kts 261°
2026-05-03 22:51 51.69397 0.80784 13221 ft 293 kts 261°
2026-05-03 22:51 51.69168 0.77538 12784 ft 291 kts 261°
2026-05-03 22:51 51.68939 0.74306 12314 ft 288 kts 261°
2026-05-03 22:52 51.68712 0.71102 11666 ft 287 kts 262°
2026-05-03 22:52 51.68485 0.67918 11039 ft 285 kts 262°
2026-05-03 22:52 51.68261 0.64794 10432 ft 283 kts 262°
2026-05-03 22:52 51.68036 0.61652 9849 ft 281 kts 262°
2026-05-03 22:53 51.67811 0.58542 9328 ft 275 kts 262°
2026-05-03 22:53 51.67591 0.55490 9216 ft 281 kts 262°
2026-05-03 22:53 51.67362 0.52349 9127 ft 282 kts 262°
2026-05-03 22:53 51.67135 0.49227 9010 ft 279 kts 262°
2026-05-03 22:54 51.66909 0.46128 8922 ft 279 kts 262°
2026-05-03 22:54 51.66682 0.43024 8916 ft 279 kts 262°
2026-05-03 22:54 51.66453 0.39919 8915 ft 279 kts 262°
2026-05-03 22:54 51.66223 0.36809 8917 ft 279 kts 262°
2026-05-03 22:55 51.65993 0.33703 8932 ft 279 kts 262°
2026-05-03 22:55 51.65762 0.30600 8932 ft 279 kts 262°
2026-05-03 22:55 51.65530 0.27497 8933 ft 279 kts 262°
2026-05-03 22:55 51.65296 0.24389 8933 ft 279 kts 262°
2026-05-03 22:56 51.65063 0.21288 8935 ft 279 kts 262°
2026-05-03 22:56 51.64829 0.18183 8934 ft 279 kts 262°
2026-05-03 22:56 51.64628 0.15080 8919 ft 277 kts 266°
2026-05-03 22:56 51.64664 0.12014 8844 ft 268 kts 271°
2026-05-03 22:57 51.64748 0.09114 8697 ft 251 kts 271°
2026-05-03 22:57 51.64830 0.06357 8340 ft 244 kts 271°
2026-05-03 22:57 51.64909 0.03704 8147 ft 241 kts 271°
2026-05-03 22:57 51.64989 0.00903 8055 ft 247 kts 271°
2026-05-03 22:58 51.65066 -0.01787 7970 ft 242 kts 271°
2026-05-03 22:58 51.65144 -0.04502 7962 ft 243 kts 271°
2026-05-03 22:58 51.65223 -0.07221 7949 ft 242 kts 271°
2026-05-03 22:58 51.65300 -0.09922 7762 ft 241 kts 271°
2026-05-03 22:59 51.65376 -0.12613 7453 ft 241 kts 271°
2026-05-03 22:59 51.65355 -0.15308 7144 ft 237 kts 255°
2026-05-03 22:59 51.64602 -0.17601 7057 ft 238 kts 224°
2026-05-03 22:59 51.63294 -0.19230 6968 ft 237 kts 208°
2026-05-03 23:00 51.61721 -0.19866 6964 ft 236 kts 177°
2026-05-03 23:00 51.60159 -0.19072 6964 ft 240 kts 147°
2026-05-03 23:00 51.58979 -0.17163 6961 ft 243 kts 131°
2026-05-03 23:00 51.57924 -0.15096 6958 ft 242 kts 130°
2026-05-03 23:01 51.56866 -0.13014 6824 ft 239 kts 131°
2026-05-03 23:01 51.55823 -0.10929 6549 ft 239 kts 130°
2026-05-03 23:01 51.54646 -0.09102 6171 ft 234 kts 152°
2026-05-03 23:01 51.53103 -0.08445 5617 ft 231 kts 183°
2026-05-03 23:02 51.51540 -0.08300 5287 ft 220 kts 168°
2026-05-03 23:02 51.50062 -0.07730 4859 ft 218 kts 164°
2026-05-03 23:02 51.48742 -0.06507 4374 ft 222 kts 141°
2026-05-03 23:02 51.47512 -0.04849 4173 ft 233 kts 141°
2026-05-03 23:03 51.46281 -0.03185 4043 ft 231 kts 141°
2026-05-03 23:03 51.45093 -0.01577 4000 ft 214 kts 141°
2026-05-03 23:03 51.44345 -0.00564 4000 ft 203 kts 141°
2026-05-03 23:03 51.43304 0.00854 3997 ft 189 kts 141°
2026-05-03 23:04 51.42302 0.02205 4001 ft 192 kts 141°
2026-05-03 23:04 51.41408 0.03763 4026 ft 191 kts 115°
2026-05-03 23:04 51.41235 0.05866 4030 ft 195 kts 77°
2026-05-03 23:04 51.41909 0.07697 4001 ft 195 kts 38°
2026-05-03 23:05 51.43153 0.08483 4002 ft 195 kts
2026-05-03 23:05 51.44508 0.08587 3998 ft 195 kts 358°
2026-05-03 23:05 51.45773 0.07963 4004 ft 193 kts 320°
2026-05-03 23:05 51.46621 0.06314 4000 ft 193 kts 301°
2026-05-03 23:06 51.47337 0.04503 4000 ft 192 kts 301°
2026-05-03 23:06 51.48032 0.02672 3992 ft 192 kts 291°
2026-05-03 23:06 51.48196 0.00583 4001 ft 192 kts 266°
2026-05-03 23:06 51.48115 -0.01533 3998 ft 189 kts 265°
2026-05-03 23:07 51.48054 -0.03640 3999 ft 189 kts 266°
2026-05-03 23:07 51.48030 -0.05753 4001 ft 189 kts 268°
2026-05-03 23:07 51.48017 -0.07829 3921 ft 187 kts 268°
2026-05-03 23:07 51.48003 -0.09942 3742 ft 187 kts 268°
2026-05-03 23:08 51.47990 -0.12019 3629 ft 186 kts 268°
2026-05-03 23:08 51.47977 -0.14069 3485 ft 187 kts 268°
2026-05-03 23:08 51.47963 -0.16170 3337 ft 189 kts 268°
2026-05-03 23:08 51.47950 -0.18264 3129 ft 187 kts 268°
2026-05-03 23:09 51.47936 -0.20349 2900 ft 187 kts 268°
2026-05-03 23:09 51.47922 -0.22426 2669 ft 185 kts 268°
2026-05-03 23:09 51.47910 -0.24442 2435 ft 177 kts 268°
2026-05-03 23:09 51.47897 -0.26388 2193 ft 172 kts 269°
2026-05-03 23:10 51.47884 -0.28281 1954 ft 167 kts 269°
2026-05-03 23:10 51.47872 -0.30124 1731 ft 163 kts 269°
2026-05-03 23:10 51.47861 -0.31913 1500 ft 158 kts 269°
2026-05-03 23:10 51.47849 -0.33659 1299 ft 154 kts 269°
2026-05-03 23:11 51.47839 -0.35320 1087 ft 144 kts 269°
2026-05-03 23:11 51.47829 -0.36869 901 ft 138 kts 268°
2026-05-03 23:11 51.47819 -0.38406 723 ft 139 kts 268°
2026-05-03 23:11 51.47809 -0.39946 538 ft 138 kts 268°
2026-05-03 23:12 51.47792 -0.41484 366 ft 137 kts 267°
2026-05-03 23:12 51.47770 -0.43040 194 ft 140 kts 268°
2026-05-03 23:12 51.47759 -0.44592 99 ft 134 kts 269°
2026-05-03 23:12 51.47754 -0.45852 85 ft 90 kts 270°
2026-05-03 23:13 51.47744 -0.46528 96 ft 34 kts 259°
2026-05-03 23:13 51.47677 -0.46794 96 ft 8 kts 242°
2026-05-03 23:13 51.47639 -0.46863 94 ft 0 kts 209°
2026-05-03 23:14 51.47617 -0.46883 93 ft 7 kts 208°
2026-05-03 23:14 51.47545 -0.46927 92 ft 14 kts 186°
2026-05-03 23:14 51.47441 -0.46896 90 ft 15 kts 165°
2026-05-03 23:15 51.47337 -0.46870 91 ft 13 kts 180°
2026-05-03 23:15 51.47248 -0.46841 89 ft 16 kts 139°
2026-05-03 23:15 51.47241 -0.46684 86 ft 16 kts 86°
2026-05-03 23:15 51.47240 -0.46508 87 ft 17 kts 89°
2026-05-03 23:16 51.47180 -0.46352 89 ft 16 kts 146°
2026-05-03 23:16 51.47139 -0.46240 89 ft 11 kts 61°
2026-05-03 23:16 51.47160 -0.46201 89 ft 0 kts 53°